Weather Roundup
Issued by NWS Corpus Christi, TX

Home | Current Version | Previous Version | Text Only | Print | Product List | Glossary On
Versions: 1 2 3 4 5 6 7 8 9 10 11 12 13 14 15 16 17 18 19 20 21 22 23 24 25 26 27 28 29 30 31 32 33 34 35 36 37 38 39 40 41 42 43 44 45 46 47 48 49 50
000
ASUS44 KCRP 272110
HRRCRP

SOUTH TEXAS REGIONAL WEATHER ROUNDUP
NATIONAL WEATHER SERVICE CORPUS CHRISTI TX
400 PM CDT WED JUL 27 2016


TXZ229>244-272200-
...CORPUS CHRISTI AREA OBSERVATIONS...

CITY           SKY/WX    TMP DP  RH WIND       PRES   REMARKS
CORPUS CHRISTI PTSUNNY   95  72  47 SE23G29   29.90F HX 103
NAS CORPUS CHR PTSUNNY   92  76  59 S18       29.92F HX 104
ROCKPORT       SUNNY     90  76  63 SE15      29.92F HX 101
KINGSVILLE NAS PTSUNNY   95  78  58 SE22G29   29.88F HX 111
ALICE          MOSUNNY   97  70  41 SE18G25   29.87F HX 103
FALFURRIAS     MOSUNNY   96  68  40 SE14G22   29.87F HX 100
$$

...VICTORIA AREA OBSERVATIONS...

CITY           SKY/WX    TMP DP  RH WIND       PRES   REMARKS
VICTORIA       MOSUNNY   95  71  45 S21G26    29.93F HX 102
BEEVILLE       FAIR      94  75  54 SE10      29.90F HX 104
PLEASANTON     PTSUNNY   78  72  81 NW9       29.94R
SAN ANTONIO    LGT RAIN  74  71  91 NW6       29.98F
$$

...LAREDO AREA OBSERVATIONS...

CITY           SKY/WX    TMP DP  RH WIND       PRES   REMARKS
LAREDO         CLOUDY    94  69  44 SE17      29.90F HX  99
COTULLA        LGT RAIN  88  75  65 NW9       29.89F HX  97
DEL RIO        CLOUDY    89  72  56 SE15      29.90F HX  96
MCALLEN        PTSUNNY   99  69  37 E16       29.88F HX 105
HEBBRONVILLE   PTSUNNY   96  58  28 S12G18    29.90F HX  95
$$

...OTHER TEXAS OBSERVATIONS...

CITY           SKY/WX    TMP DP  RH WIND       PRES   REMARKS
BROWNSVILLE    CLOUDY    95  73  48 S15G22    29.90F HX 104
HOUSTON        CLOUDY    81  75  82 SE10      29.96F
COL. STATION   CLOUDY    81  74  79 S10       29.96S
AUSTIN         MOSUNNY   91  74  57 S12       29.93F HX 100
WACO           MOSUNNY   97  67  37 S8        29.89F HX 101
FORT WORTH     CLOUDY    87  71  58 N17       29.89F THUNDER HX  93
WICHITA FALLS  PTSUNNY   94  69  44 E9        29.89F HX  99
LUBBOCK        MOSUNNY   96  55  25 NE9       30.02F HX  94
EL PASO        MOSUNNY   93  56  28 N7        30.03F HX  91
$$

...MARINE OBSERVATIONS...

STATION/POSITION TIME  SKY/WX   TEMP    WIND        PRES    VSBY  WAVE   SWELL
                                AIR SEA DIR/SP/G                  HT/PER HT/PER
                 (UTC)          (F)     (DEG/KT/KT) (MB)    (MI)  (FT/S) (FT/S)
PORT ARANSAS     2100            85 88  140/ 16/ 18 1013.6F
BUOY 90 E PORT A 2050            86 86  160/  8/ 10 1014.5F         4/ 6   3/ 6
BUOY 45 SE BAFFI 2050            85 85  160/ 12/ 14 1013.3F         4/ 6   2/ 7
BUOY 200 E PT IS 2050            87 86  150/ 14/ 17 1015.2S         3/ 6
BUOY 15 E GALVES 2050            85 86  160/ 12/ 14 1015.0F         3/ 6   2/ 6
$$



USA.gov is the U.S. government's official web portal to all federal, state and local government web resources and services.